Regional Weather Roundup
Issued by NWS

Home | Current Version | Previous Version | Graphics & Text | Print | Product List | Glossary On
Versions: 1 2 3 4 5 6 7 8 9 10 11 12 13 14 15 16 17 18 19 20 21 22 23 24 25 26 27 28 29 30 31 32 33 34 35 36 37 38 39 40 41 42 43 44 45 46 47 48 49 50
000
ASUS43 KFSD 311610
RWRSD

WEATHER ROUNDUP FOR SOUTH DAKOTA
NATIONAL WEATHER SERVICE SIOUX FALLS SD
1100 AM CDT TUE MAY 31 2016

NOTE: "FAIR" INDICATES FEW OR NO CLOUDS BELOW 12,000 FEET WITH NO
SIGNIFICANT WEATHER AND/OR OBSTRUCTIONS TO VISIBILITY.


SDZ001>005-009-010-012>017-311700-
NORTHWEST AND NORTH CENTRAL SOUTH DAKOTA

CITY           SKY/WX    TMP DP  RH WIND       PRES   REMARKS
BUFFALO          N/A     49  45  86 W28       29.80F
FAITH            N/A     55  40  56 W25G47    29.87F
MOBRIDGE       CLOUDY    59  44  57 W20G30    29.79F
$$

SDZ012>016-024>037-041>051-057-063-072>074-311700-
SOUTHWEST AND SOUTH CENTRAL SOUTH DAKOTA

CITY           SKY/WX    TMP DP  RH WIND       PRES   REMARKS
RAPID CTY ARPT PTSUNNY   61  34  36 W23G30    29.96F
PIERRE         SUNNY     65  43  44 W24G30    29.88F
CUSTER         SUNNY     50  28  42 W32G52    30.01S
ELLSWORTH AFB  PTSUNNY   63  37  39 NW23G38   29.94F
PHILIP         PTSUNNY   65  41  41 W24G32    29.92F
PINE RIDGE     MOSUNNY   61  36  39 W28G37    30.03F
WINNER         FAIR      65  43  44 W13       29.95F
$$

SDZ004>011-016>023-039-040-311700-
NORTHEAST SOUTH DAKOTA

CITY           SKY/WX    TMP DP  RH WIND       PRES   REMARKS
ABERDEEN       SUNNY     62  45  53 W16G24    29.83F
WATERTOWN      MOSUNNY   63  48  58 W16       29.87S
BROOKINGS      SUNNY     62  50  64 W20       29.89F
SISSETON         N/A     66  49  54 W17       29.81S
$$

SDZ017-020-022-023-036>040-048>070-311700-
SOUTHEAST SOUTH DAKOTA

CITY           SKY/WX    TMP DP  RH WIND       PRES   REMARKS
SIOUX FALLS    MOSUNNY   65  52  62 NW13      29.93S
HURON          SUNNY     64  45  49 W16G23    29.89F
CHAMBERLAIN    SUNNY     65  46  49 W12       29.92F
MITCHELL       SUNNY     66  46  48 NW15      29.93F
YANKTON        SUNNY     64  48  55 NW12      29.95S
$$

ABBREVIATIONS USED IN REMARKS
   TC - TEMPERATURE IN CELSIUS
  WCI - WIND CHILL INDEX
   HX - HEAT INDEX
  VSB - VISIBILITY




USA.gov is the U.S. government's official web portal to all federal, state and local government web resources and services.